TimeEDT,TemperatureF,Dew PointF,Humidity,Sea Level PressureIn,VisibilityMPH,Wind Direction,Wind SpeedMPH,Gust SpeedMPH,PrecipitationIn,Events,Conditions,WindDirDegrees,DateUTC
12:54 AM,39.9,30.0,68,30.06,10.0,West,12.7,-,N/A,,Overcast,260,2013-10-25 04:54:00
1:54 AM,39.0,30.0,70,30.08,10.0,West,12.7,-,N/A,,Scattered Clouds,270,2013-10-25 05:54:00
2:54 AM,39.0,30.0,70,30.09,10.0,West,11.5,-,N/A,,Mostly Cloudy,270,2013-10-25 06:54:00
3:54 AM,37.9,30.0,73,30.09,10.0,West,10.4,-,N/A,,Partly Cloudy,270,2013-10-25 07:54:00
4:54 AM,37.9,30.9,76,30.11,10.0,West,9.2,-,N/A,,Scattered Clouds,270,2013-10-25 08:54:00
5:54 AM,37.0,30.9,79,30.13,10.0,West,6.9,-,N/A,,Clear,270,2013-10-25 09:54:00
6:54 AM,37.0,30.9,79,30.14,10.0,West,6.9,-,N/A,,Clear,280,2013-10-25 10:54:00
7:54 AM,37.9,32.0,79,30.17,10.0,WNW,4.6,-,N/A,,Scattered Clouds,290,2013-10-25 11:54:00
8:54 AM,41.0,33.1,73,30.19,10.0,WNW,9.2,-,N/A,,Mostly Cloudy,300,2013-10-25 12:54:00
9:04 AM,41.0,33.8,76,30.18,10.0,West,10.4,-,N/A,,Mostly Cloudy,270,2013-10-25 13:04:00
9:33 AM,42.8,33.8,70,30.19,10.0,West,10.4,-,N/A,,Overcast,260,2013-10-25 13:33:00
9:45 AM,42.8,33.8,70,30.19,10.0,West,9.2,-,N/A,,Overcast,270,2013-10-25 13:45:00
9:54 AM,42.1,33.1,70,30.21,10.0,West,10.4,-,N/A,,Overcast,280,2013-10-25 13:54:00
10:54 AM,46.9,34.0,61,30.20,10.0,West,9.2,-,N/A,,Mostly Cloudy,270,2013-10-25 14:54:00
11:04 AM,46.4,33.8,62,30.20,10.0,West,11.5,-,N/A,,Mostly Cloudy,270,2013-10-25 15:04:00
11:54 AM,48.9,34.0,56,30.21,10.0,West,15.0,-,N/A,,Mostly Cloudy,260,2013-10-25 15:54:00
12:54 PM,46.9,33.1,59,30.21,10.0,WSW,11.5,-,N/A,,Overcast,240,2013-10-25 16:54:00
1:54 PM,50.0,34.0,54,30.19,10.0,West,12.7,-,0.00,,Overcast,260,2013-10-25 17:54:00
2:54 PM,50.0,32.0,50,30.19,10.0,West,10.4,19.6,0.00,,Mostly Cloudy,280,2013-10-25 18:54:00
3:54 PM,50.0,30.9,48,30.18,10.0,West,12.7,19.6,N/A,,Mostly Cloudy,260,2013-10-25 19:54:00
4:54 PM,50.0,28.9,44,30.18,10.0,NNW,10.4,-,N/A,,Overcast,330,2013-10-25 20:54:00
5:54 PM,48.0,33.1,56,30.19,10.0,Calm,Calm,-,N/A,,Overcast,0,2013-10-25 21:54:00
6:54 PM,46.9,35.1,63,30.21,10.0,Calm,Calm,-,N/A,,Overcast,0,2013-10-25 22:54:00
7:54 PM,42.1,30.0,62,30.22,10.0,Variable,3.5,-,N/A,,Clear,0,2013-10-25 23:54:00
8:54 PM,39.9,28.0,63,30.23,10.0,West,5.8,-,N/A,,Clear,260,2013-10-26 00:54:00
9:54 PM,41.0,28.0,60,30.24,10.0,Calm,Calm,-,N/A,,Clear,0,2013-10-26 01:54:00
10:54 PM,37.9,28.9,70,30.24,10.0,Calm,Calm,-,N/A,,Clear,0,2013-10-26 02:54:00
11:54 PM,35.1,28.9,78,30.24,10.0,Calm,Calm,-,N/A,,Clear,0,2013-10-26 03:54:00